一网星座-0448星 (ONEWEB-0448 )

导读 | 星芒AI

ONEWEB-0448 是 OneWeb 卫星星座计划中的一颗低轨通信卫星,旨在为全球提供高速互联网服务。该卫星采用标准化设计,具备高容量通信能力,支持偏远和 underserved 地区的网络连接。作为 OneWeb 扩展其全球覆盖计划的一部分,ONEWEB-0448 通过与地面站和用户终端的协同工作,实现低延迟、高带宽的数据传输。其发射和运行有助于提升 OneWeb 在全球卫星互联网市场的竞争力,并推动数字包容性发展。

基本信息
目录编号:
51641
目录名称:
ONEWEB-0448
国际标识:
2022-012V
轨道中心:
EARTH
卫星名称:
一网星座-0448星
卫星全名:
一网星座-0448星 (ONEWEB-0448 )
卫星状态:
在轨 (已飞行1404 天)
发射日期:
2022-02-10 UTC
国别 :
英国 (GB)
星等 :
--
轨道信息
数据来源 国际轨道数据
星历时间: 2025-12-15T02:32:09+0800
1天前
查看轨道信息
半长轴: 7599.86km
偏心率: 0.0001748
轨道倾角: 87.880°
近地点辐角 104.856°
升交点赤经 73.053°
平近点角 255.277°
近地点: 1220.396km
远地点: 1223.054km
周期: 109.893分钟
每日圈数: 13.103714
详细信息
平衡模式:
三轴稳定
覆盖范围:
全球
运营商:
一网卫星公司
运营商所在国:
英国
制造商(研发单位):
一网卫星公司
制造商所在国:
英国
使用方式:
暂无
卫星简介
OneWeb卫星网络由648颗重约125公斤的微型卫星组成,运行在1200公里的轨道上。 每颗卫星都能够提供至少每秒8千兆位的吞吐量,以使用其高吞吐量的Ku频段有效载荷为家庭和移动平台提供互联网接入。该卫星仍在工作。
2D轨道图
3D轨道图
轨道高度分析图
轨道倾角分析图
轨道综合分析图
查看轨道综合分析图